Voltar ao catálogo

DELTA 1 DEB

AtivoSSO
NORAD 21551·DEBRIS·🇺🇸 United States

Lançado Jun 12, 1975 de Vandenberg Space Force Base

Loading…

Próximas Passagens (próximas 24 horas)

TLE

AtualizadoSource: Space-Track

Época: Sep 14, 2026, 04:26 UTC

1 21551U 75052HF  26257.18513755  .00000064  00000-0  23487-3 0  9997
2 21551  99.7688 146.4156 0106551 101.1555  51.0342 13.24645127706403

Acompanhe DELTA 1 DEB em tempo real com AllMySat

Download on the App Store